This is the latest recevied weather packets stored in our database for station/object K7YVO. If no packets are shown the sender has not sent any weather packets the latest 10 day(s).
| Time | Temp. | Humidity | Pressure | Rain* | Wind** | Luminosity | Snow |
|---|---|---|---|---|---|---|---|
| 1778028614 | 15.56° C | 77% | 1017.4 hPa | 0 mm | - | 70 W/m² | - |
| 1778028312 | 15.56° C | 77% | 1017.7 hPa | 0 mm | - | 64 W/m² | - |
| 1778028008 | 15.56° C | 78% | 1017.5 hPa | 0 mm | - | 66 W/m² | - |
| 1778027705 | 15.56° C | 77% | 1017.5 hPa | 0 mm | - | 67 W/m² | - |
| 1778027400 | 16.11° C | 77% | 1017.6 hPa | 0 mm | - | 72 W/m² | - |
| 1778027097 | 15.56° C | 77% | 1017.5 hPa | 0 mm | - | 83 W/m² | - |
| 1778026792 | 15.56° C | 77% | 1017.5 hPa | 0 mm | - | 88 W/m² | - |
| 1778026489 | 16.11° C | 76% | 1017.6 hPa | 0 mm | - | 81 W/m² | - |
| 1778026187 | 16.11° C | 75% | 1017.6 hPa | 0 mm | - | 89 W/m² | - |
| 1778025884 | 16.11° C | 75% | 1017.7 hPa | 0 mm | - | 101 W/m² | - |
| 1778025581 | 16.11° C | 74% | 1017.7 hPa | 0 mm | - | 106 W/m² | - |
| 1778025279 | 16.11° C | 74% | 1017.7 hPa | 0 mm | - | 111 W/m² | - |
| 1778024976 | 16.11° C | 74% | 1018 hPa | 0 mm | - | 121 W/m² | - |
| 1778024673 | 15.56° C | 75% | 1017.8 hPa | 0 mm | - | 126 W/m² | - |
| 1778024370 | 15.56° C | 75% | 1017.7 hPa | 0 mm | - | 123 W/m² | - |
| 1778024067 | 16.11° C | 75% | 1017.8 hPa | 0 mm | - | 117 W/m² | - |
| 1778023765 | 15.56° C | 76% | 1017.9 hPa | 0 mm | - | 105 W/m² | - |
| 1778023463 | 15.56° C | 76% | 1017.8 hPa | 0 mm | - | 101 W/m² | - |
| 1778023159 | 15.56° C | 76% | 1017.9 hPa | 0 mm | - | 101 W/m² | - |
| 1778022857 | 15.56° C | 77% | 1017.9 hPa | 0 mm | - | 101 W/m² | - |
| 1778022555 | 15.56° C | 77% | 1018 hPa | 0 mm | - | 103 W/m² | - |
| 1778022252 | 15.56° C | 76% | 1017.9 hPa | 0 mm | - | 105 W/m² | - |
| 1778021948 | 15.56° C | 76% | 1017.9 hPa | 0 mm | - | 105 W/m² | - |
| 1778021646 | 15.56° C | 76% | 1018 hPa | 0 mm | - | 106 W/m² | - |
| 1778021341 | 16.11° C | 76% | 1017.9 hPa | 0 mm | - | 123 W/m² | - |
* Rain latest hour (hover to see other rain measurements)
** Current wind speed in m/s (hover to see current wind gust speed)